When you browse on this site, cookies collect data to enhance your experience and personalize the content and advertising you see.
Visit our Privacy Policy to learn more. By continuing to use the site, you agree to this use of cookies and data.

Hourly Weather Meyrin

Today, 7 July, Tuesday

Time Temperature Precipitation Wind Pressure Humidity
00:00 +11°C° 0 mm 3 mps 727 mmHg 85%
01:00 +12°C° 0 mm 2 mps 727 mmHg 86%
02:00 +10°C° 0 mm 2 mps 727 mmHg 88%
03:00 +10°C° 0 mm 2 mps 727 mmHg 90%
04:00 +11°C° 0 mm 3 mps 727 mmHg 86%
05:00 +12°C° 0 mm 3 mps 727 mmHg 82%
06:00 +13°C° 0 mm 3 mps 727 mmHg 78%
07:00 +16°C° 0 mm 3 mps 727 mmHg 70%
08:00 +18°C° 0 mm 3 mps 727 mmHg 63%
09:00 +20°C° 0 mm 3 mps 727 mmHg 55%
10:00 +21°C° 0 mm 3 mps 727 mmHg 53%
11:00 +22°C° 0 mm 3 mps 727 mmHg 50%
12:00 +24°C° 0 mm 3 mps 727 mmHg 47%
13:00 +25°C° 0 mm 3 mps 727 mmHg 47%
14:00 +25°C° 0 mm 2 mps 727 mmHg 47%
15:00 +25°C° 0 mm 2 mps 727 mmHg 47%
16:00 +24°C° 0 mm 2 mps 727 mmHg 55%
17:00 +23°C° 0 mm 2 mps 726 mmHg 62%
18:00 +22°C° 0 mm 1 mps 726 mmHg 69%
19:00 +20°C° 0 mm 1 mps 727 mmHg 74%
20:00 +18°C° 0 mm 1 mps 727 mmHg 78%
21:00 +15°C° 0 mm 1 mps 727 mmHg 83%
22:00 +15°C° 0 mm 1 mps 727 mmHg 83%
23:00 +14°C° 0 mm 1 mps 727 mmHg 83%

Tomorrow, 8 July, Wednesday

Time Temperature Precipitation Wind Pressure Humidity
00:00 +14°C° 0 mm 1 mps 727 mmHg 82%
01:00 +14°C° 0 mm 1 mps 726 mmHg 83%
02:00 +13°C° 0 mm 1 mps 726 mmHg 84%
03:00 +12°C° 0 mm 0 mps 726 mmHg 85%
04:00 +13°C° 0 mm 0 mps 726 mmHg 82%
05:00 +15°C° 0 mm 0 mps 726 mmHg 78%
06:00 +16°C° 0 mm 0 mps 727 mmHg 75%
07:00 +18°C° 0 mm 0 mps 727 mmHg 68%
08:00 +22°C° 0 mm 1 mps 727 mmHg 60%
09:00 +25°C° 0 mm 1 mps 727 mmHg 53%
10:00 +26°C° 0 mm 1 mps 727 mmHg 50%
11:00 +27°C° 0 mm 1 mps 727 mmHg 47%
12:00 +28°C° 0 mm 1 mps 727 mmHg 43%
13:00 +28°C° 0 mm 1 mps 727 mmHg 44%
14:00 +28°C° 0 mm 2 mps 727 mmHg 45%
15:00 +28°C° 0 mm 2 mps 727 mmHg 46%
16:00 +27°C° 0 mm 1 mps 727 mmHg 54%
17:00 +26°C° 0 mm 1 mps 727 mmHg 61%
18:00 +25°C° 0 mm 1 mps 726 mmHg 69%
19:00 +23°C° 0 mm 1 mps 727 mmHg 73%
20:00 +21°C° 0 mm 1 mps 727 mmHg 76%
21:00 +19°C° 0 mm 1 mps 727 mmHg 79%
22:00 +19°C° 0 mm 1 mps 727 mmHg 79%
23:00 +18°C° 0 mm 1 mps 727 mmHg 79%

Day after tomorrow, 9 July, Thursday

Time Temperature Precipitation Wind Pressure Humidity
00:00 +18°C° 0 mm 1 mps 727 mmHg 79%
01:00 +16°C° 0 mm 1 mps 727 mmHg 81%
02:00 +16°C° 0 mm 1 mps 727 mmHg 82%
03:00 +16°C° 0 mm 1 mps 727 mmHg 83%
04:00 +18°C° 0 mm 1 mps 727 mmHg 80%
05:00 +17°C° 0 mm 0 mps 727 mmHg 77%
06:00 +18°C° 0 mm 0 mps 727 mmHg 74%
07:00 +21°C° 0 mm 0 mps 727 mmHg 67%
08:00 +25°C° 0 mm 1 mps 727 mmHg 61%
09:00 +27°C° 0 mm 1 mps 728 mmHg 54%
10:00 +28°C° 0 mm 1 mps 727 mmHg 51%
11:00 +29°C° 0 mm 1 mps 727 mmHg 47%
12:00 +30°C° 0 mm 1 mps 727 mmHg 44%
13:00 +30°C° 0 mm 1 mps 727 mmHg 44%
14:00 +31°C° 0 mm 1 mps 726 mmHg 43%
15:00 +31°C° 0 mm 1 mps 726 mmHg 43%
16:00 +29°C° 0 mm 1 mps 726 mmHg 51%
17:00 +28°C° 0 mm 1 mps 726 mmHg 59%
18:00 +25°C° 0 mm 0 mps 725 mmHg 67%
19:00 +23°C° 0 mm 0 mps 726 mmHg 69%
20:00 +23°C° 0 mm 1 mps 726 mmHg 70%
21:00 +21°C° 0 mm 1 mps 726 mmHg 72%
22:00 +21°C° 0 mm 1 mps 725 mmHg 71%
23:00 +21°C° 0 mm 1 mps 725 mmHg 69%

10 July, Friday

Time Temperature Precipitation Wind Pressure Humidity
00:00 +21°C° 0 mm 1 mps 725 mmHg 68%
01:00 +21°C° 0 mm 1 mps 725 mmHg 68%
02:00 +20°C° 0 mm 1 mps 725 mmHg 67%
03:00 +20°C° 0 mm 1 mps 725 mmHg 66%
04:00 +21°C° 0 mm 1 mps 725 mmHg 68%
05:00 +22°C° 0 mm 1 mps 725 mmHg 69%
06:00 +23°C° 0 mm 1 mps 725 mmHg 71%
07:00 +24°C° 0 mm 2 mps 725 mmHg 67%
08:00 +26°C° 0 mm 2 mps 725 mmHg 63%
09:00 +27°C° 0 mm 2 mps 725 mmHg 59%
10:00 +27°C° 0.7 mm 3 mps 725 mmHg 64%
11:00 +27°C° 0.7 mm 3 mps 725 mmHg 69%
12:00 +26°C° 0.7 mm 3 mps 725 mmHg 74%
13:00 +26°C° 0.8 mm 3 mps 725 mmHg 72%
14:00 +26°C° 0.8 mm 3 mps 726 mmHg 70%
15:00 +26°C° 0.8 mm 2 mps 726 mmHg 68%
16:00 +25°C° 0.2 mm 2 mps 726 mmHg 72%
17:00 +24°C° 0.2 mm 2 mps 726 mmHg 76%
18:00 +23°C° 0.2 mm 2 mps 726 mmHg 80%
19:00 +20°C° 0 mm 2 mps 727 mmHg 84%
20:00 +18°C° 0 mm 2 mps 727 mmHg 88%
21:00 +17°C° 0 mm 2 mps 727 mmHg 92%
22:00 +16°C° 0 mm 1 mps 727 mmHg 92%
23:00 +16°C° 0 mm 1 mps 727 mmHg 91%

11 July, Saturday

Time Temperature Precipitation Wind Pressure Humidity
00:00 +15°C° 0 mm 1 mps 727 mmHg 91%
01:00 +15°C° 0 mm 1 mps 727 mmHg 90%
02:00 +14°C° 0 mm 1 mps 727 mmHg 89%
03:00 +14°C° 0 mm 1 mps 727 mmHg 88%
04:00 +14°C° 0 mm 2 mps 727 mmHg 86%
05:00 +15°C° 0 mm 2 mps 728 mmHg 83%
06:00 +16°C° 0 mm 2 mps 728 mmHg 80%
07:00 +17°C° 0 mm 2 mps 728 mmHg 72%
08:00 +19°C° 0 mm 2 mps 728 mmHg 65%
09:00 +21°C° 0 mm 2 mps 728 mmHg 58%
10:00 +23°C° 0 mm 2 mps 728 mmHg 54%
11:00 +24°C° 0 mm 2 mps 728 mmHg 49%
12:00 +25°C° 0 mm 2 mps 728 mmHg 45%
13:00 +25°C° 0 mm 3 mps 728 mmHg 45%
14:00 +25°C° 0 mm 3 mps 728 mmHg 44%
15:00 +25°C° 0 mm 3 mps 728 mmHg 44%
16:00 +24°C° 0 mm 3 mps 728 mmHg 51%
17:00 +22°C° 0 mm 3 mps 728 mmHg 57%
18:00 +21°C° 0 mm 2 mps 728 mmHg 64%
19:00 +19°C° 0 mm 2 mps 728 mmHg 68%
20:00 +17°C° 0 mm 2 mps 728 mmHg 72%
21:00 +15°C° 0 mm 2 mps 729 mmHg 77%
22:00 +15°C° 0 mm 2 mps 728 mmHg 78%
23:00 +14°C° 0 mm 2 mps 728 mmHg 79%

12 July, Sunday

Time Temperature Precipitation Wind Pressure Humidity
00:00 +14°C° 0 mm 2 mps 728 mmHg 80%
01:00 +13°C° 0 mm 2 mps 728 mmHg 83%
02:00 +13°C° 0 mm 2 mps 728 mmHg 86%
03:00 +13°C° 0 mm 2 mps 728 mmHg 88%
04:00 +14°C° 0 mm 2 mps 728 mmHg 85%
05:00 +15°C° 0 mm 2 mps 728 mmHg 82%
06:00 +16°C° 0 mm 2 mps 728 mmHg 78%
07:00 +18°C° 0 mm 2 mps 729 mmHg 72%
08:00 +20°C° 0 mm 2 mps 729 mmHg 65%
09:00 +23°C° 0 mm 2 mps 729 mmHg 58%
10:00 +24°C° 0 mm 2 mps 729 mmHg 55%
11:00 +26°C° 0 mm 2 mps 729 mmHg 51%
12:00 +27°C° 0 mm 2 mps 729 mmHg 48%
13:00 +27°C° 0 mm 2 mps 729 mmHg 48%
14:00 +27°C° 0 mm 2 mps 728 mmHg 48%
15:00 +27°C° 0 mm 2 mps 728 mmHg 48%
16:00 +26°C° 0 mm 2 mps 728 mmHg 55%
17:00 +25°C° 0 mm 2 mps 728 mmHg 62%
18:00 +24°C° 0 mm 2 mps 728 mmHg 69%
19:00 +21°C° 0 mm 2 mps 728 mmHg 72%
20:00 +19°C° 0 mm 2 mps 728 mmHg 74%
21:00 +17°C° 0 mm 2 mps 728 mmHg 77%
22:00 +16°C° 0 mm 2 mps 728 mmHg 80%
23:00 +16°C° 0 mm 2 mps 728 mmHg 84%
Show more